Content
SEND FEEDBACK

Daily
Averages
Monthly
Summary
United Kingdom

INVERNESS, SCOTLAND


Home > Europe > United Kingdom > Scotland
Elevation: 30 feet     Latitude: 57 32N     Longitude: 004 03W

WEATHER
 
SELECT A DAY
Number of Records: 229,025;   Date Range: 7/1/96 - 7/9/14
 
SHARE

PRINT THIS DATA

[ ← Previous Day ]
WEATHER ALMANAC - JUNE 26, 2013
[ Next Day → ]
[ °C ]   °F
We're sorry. There is no daily almanac available for Inverness, Scotland on June 26, 2013.
WEATHER BY HOUR - JUNE 26, 2013
[ °C ]   °F
Local TimeTemperatureDewpointHumidityBarometerVisibilityWind DirectionWind SpeedGust SpeedPrecipitationEventsConditions
12:50 AM53.6 °F50.0 °F88 %30.39 in6.2 miSW (230°)4.6 mphMostly Cloudy
1:20 AM53.6 °F50.0 °F88 %30.39 in6.2 miSW (230°)5.8 mphMostly Cloudy
1:50 AM51.8 °F50.0 °F94 %30.39 in6.2 miWSW (240°)5.8 mphMostly Cloudy
2:20 AM53.6 °F48.2 °F82 %30.39 in6.2 miWSW (250°)8.1 mphMostly Cloudy
2:50 AM53.6 °F48.2 °F82 %30.39 in6.2 miWSW (250°)6.9 mphMostly Cloudy
3:20 AM51.8 °F48.2 °F88 %30.39 in6.2 miWSW (250°)8.1 mphMostly Cloudy
3:50 AM53.6 °F48.2 °F82 %30.39 in6.2 miWSW (250°)8.1 mphScattered Clouds
4:20 AM53.6 °F48.2 °F82 %30.39 in6.2 miWSW (250°)6.9 mphScattered Clouds
4:50 AM51.8 °F48.2 °F88 %30.39 in6.2 miWSW (250°)6.9 mphScattered Clouds
5:20 AM51.8 °F48.2 °F88 %30.39 in6.2 miSW (230°)4.6 mphScattered Clouds
5:50 AM51.8 °F48.2 °F88 %30.42 in6.2 miWSW (250°)5.8 mphScattered Clouds
6:20 AM51.8 °F48.2 °F88 %30.42 in6.2 miWSW (240°)4.6 mphScattered Clouds
6:50 AM51.8 °F48.2 °F88 %30.42 in6.2 miWSW (250°)5.8 mphScattered Clouds
7:20 AM55.4 °F48.2 °F77 %30.42 in6.2 miWSW (250°)8.1 mphScattered Clouds
7:50 AM55.4 °F48.2 °F77 %30.42 in6.2 miWSW (250°)6.9 mphScattered Clouds
8:20 AM55.4 °F48.2 °F77 %30.42 in6.2 miWest (260°)8.1 mphScattered Clouds
8:50 AM55.4 °F48.2 °F77 %30.42 in6.2 miWest (260°)10.4 mphScattered Clouds
9:20 AM55.4 °F48.2 °F77 %30.42 in6.2 miWest (270°)10.4 mphOvercast
9:50 AM55.4 °F46.4 °F72 %30.42 in6.2 miWest (260°)10.4 mphMostly Cloudy
10:20 AM55.4 °F46.4 °F72 %30.42 in6.2 miWest (270°)10.4 mphMostly Cloudy
10:50 AM57.2 °F46.4 °F67 %30.45 in6.2 miWest (270°)6.9 mphMostly Cloudy
11:20 AM57.2 °F46.4 °F67 %30.45 in6.2 miWest (280°)5.8 mphMostly Cloudy
11:50 AM57.2 °F44.6 °F63 %30.45 in6.2 miWest (270°)10.4 mphOvercast
12:20 PM57.2 °F46.4 °F67 %30.45 in6.2 miWest (280°)6.9 mphMostly Cloudy
12:50 PM57.2 °F48.2 °F72 %30.45 in6.2 miNNW (340°)4.6 mphMostly Cloudy
1:20 PM59.0 °F44.6 °F59 %30.45 in6.2 miWest (280°)9.2 mphMostly Cloudy
1:50 PM59.0 °F44.6 °F59 %30.45 in6.2 miWNW (290°)8.1 mphMostly Cloudy
2:20 PM59.0 °F44.6 °F59 %30.45 in6.2 miWest (270°)8.1 mphMostly Cloudy
2:50 PM57.2 °F44.6 °F63 %30.45 in6.2 miNW (310°)8.1 mphMostly Cloudy
3:20 PM59.0 °F46.4 °F63 %30.45 in6.2 miNW (320°)9.2 mphMostly Cloudy
3:50 PM59.0 °F46.4 °F63 %30.45 in6.2 miNNW (340°)6.9 mphMostly Cloudy
4:20 PM59.0 °F46.4 °F63 %30.45 in6.2 miNorth (350°)4.6 mphMostly Cloudy
4:50 PM59.0 °F46.4 °F63 %30.45 in6.2 miNorth (360°)4.6 mphMostly Cloudy
5:20 PM59.0 °F46.4 °F63 %30.45 in6.2 miVariable2.3 mphMostly Cloudy
5:50 PM57.2 °F48.2 °F72 %30.45 in6.2 miNorth (10°)3.5 mphMostly Cloudy
6:20 PM57.2 °F46.4 °F67 %30.45 in6.2 miVariable2.3 mphMostly Cloudy
6:50 PM57.2 °F48.2 °F72 %30.45 in6.2 miVariable2.3 mphMostly Cloudy
7:20 PM57.2 °F48.2 °F72 %30.45 in6.2 miNorth (10°)4.6 mphScattered Clouds
7:50 PM57.2 °F48.2 °F72 %30.42 in6.2 miNNE (30°)4.6 mphScattered Clouds
8:20 PM57.2 °F46.4 °F67 %30.42 in6.2 miNorth (10°)3.5 mphScattered Clouds
8:50 PM55.4 °F46.4 °F72 %30.45 in6.2 miNorth (10°)5.8 mphScattered Clouds
9:20 PM53.6 °F46.4 °F77 %30.45 in6.2 miNorth (10°)5.8 mphScattered Clouds
9:50 PM51.8 °F46.4 °F82 %30.45 in6.2 miNNE (20°)4.6 mphMostly Cloudy
10:20 PM50.0 °F46.4 °F87 %30.45 in6.2 miNNE (30°)4.6 mphOvercast
10:50 PM50.0 °F46.4 °F87 %30.45 in6.2 miCalmMostly Cloudy
11:20 PM46.4 °F44.6 °F93 %30.42 in6.2 miCalm
11:50 PM46.4 °F42.8 °F87 %30.42 in6.2 miSouth (180°)2.3 mph
Hourly data recorded from EGPE, located miles away from Inverness, Scotland







STORIES FROM OUR PARTNERS